Time,TemperatureF,DewpointF,PressureIn,WindDirection,WindDirectionDegrees,WindSpeedMPH,WindSpeedGustMPH,Humidity,HourlyPrecipIn,Conditions,Clouds,dailyrainin,SoftwareType,DateUTC
2013-04-04 00:02:00,48.0,27.0,30.15,NE,53,4.0,-999.0,43,-99.99,,,-99.99,,2013-04-04 05:02:00,
2013-04-04 00:12:00,48.0,27.0,30.15,NE,53,4.0,-999.0,43,-99.99,,,-99.99,,2013-04-04 05:12:00,
2013-04-04 00:23:00,47.0,26.0,30.15,NE,41,4.0,-999.0,44,-99.99,,,-99.99,,2013-04-04 05:23:00,
2013-04-04 00:32:00,47.0,27.0,30.15,NE,46,3.0,-999.0,45,-99.99,,,-99.99,,2013-04-04 05:32:00,
2013-04-04 00:42:00,47.0,27.0,30.15,NE,46,3.0,-999.0,45,-99.99,,,-99.99,,2013-04-04 05:42:00,
2013-04-04 00:53:00,47.0,26.0,30.15,NE,51,0.0,-999.0,44,-99.99,,,-99.99,,2013-04-04 05:53:00,
2013-04-04 01:02:00,47.0,27.0,30.14,NNE,29,0.0,-999.0,45,-99.99,,,-99.99,,2013-04-04 06:02:00,
2013-04-04 01:12:00,47.0,27.0,30.14,NNE,29,0.0,-999.0,45,-99.99,,,-99.99,,2013-04-04 06:12:00,
2013-04-04 01:22:00,47.0,28.0,30.13,NNE,21,0.0,-999.0,47,-99.99,,,-99.99,,2013-04-04 06:22:00,
2013-04-04 01:32:00,46.0,29.0,30.13,North,10,0.0,-999.0,52,-99.99,,,-99.99,,2013-04-04 06:32:00,
2013-04-04 01:42:00,46.0,29.0,30.13,North,10,0.0,-999.0,52,-99.99,,,-99.99,,2013-04-04 06:42:00,
2013-04-04 01:52:00,45.0,30.0,30.12,NNE,19,0.0,-999.0,55,-99.99,,,-99.99,,2013-04-04 06:52:00,
2013-04-04 02:02:00,45.0,29.0,30.11,NNE,17,2.0,-999.0,54,-99.99,,,-99.99,,2013-04-04 07:02:00,
2013-04-04 02:12:00,45.0,29.0,30.11,NNE,17,2.0,-999.0,54,-99.99,,,-99.99,,2013-04-04 07:12:00,
2013-04-04 02:22:00,45.0,28.0,30.10,NNE,24,0.0,-999.0,52,-99.99,,,-99.99,,2013-04-04 07:22:00,
2013-04-04 02:32:00,46.0,28.0,30.10,NE,49,0.0,-999.0,49,-99.99,,,-99.99,,2013-04-04 07:32:00,
2013-04-04 02:43:00,46.0,28.0,30.10,NE,49,0.0,-999.0,49,-99.99,,,-99.99,,2013-04-04 07:43:00,
2013-04-04 02:52:00,46.0,27.0,30.09,NE,48,0.0,-999.0,47,-99.99,,,-99.99,,2013-04-04 07:52:00,
2013-04-04 03:02:00,46.0,26.0,30.09,NE,42,0.0,-999.0,46,-99.99,,,-99.99,,2013-04-04 08:02:00,
2013-04-04 03:12:00,46.0,26.0,30.09,NE,42,0.0,-999.0,46,-99.99,,,-99.99,,2013-04-04 08:12:00,
2013-04-04 03:22:00,46.0,27.0,30.08,NNE,30,0.0,-999.0,47,-99.99,,,-99.99,,2013-04-04 08:22:00,
2013-04-04 03:32:00,46.0,27.0,30.08,NE,38,0.0,-999.0,48,-99.99,,,-99.99,,2013-04-04 08:32:00,
2013-04-04 03:43:00,46.0,27.0,30.08,NE,38,0.0,-999.0,48,-99.99,,,-99.99,,2013-04-04 08:43:00,
2013-04-04 03:52:00,45.0,28.0,30.08,NNE,21,0.0,-999.0,52,-99.99,,,-99.99,,2013-04-04 08:52:00,
2013-04-04 04:02:00,45.0,29.0,30.08,North,355,0.0,-999.0,54,-99.99,,,-99.99,,2013-04-04 09:02:00,
2013-04-04 04:12:00,45.0,29.0,30.08,North,355,0.0,-999.0,54,-99.99,,,-99.99,,2013-04-04 09:12:00,
2013-04-04 04:22:00,45.0,31.0,30.08,NNE,14,0.0,-999.0,57,-99.99,,,-99.99,,2013-04-04 09:22:00,
2013-04-04 04:33:00,44.0,31.0,30.08,NNE,19,1.0,-999.0,60,-99.99,,,-99.99,,2013-04-04 09:33:00,
2013-04-04 04:43:00,44.0,31.0,30.08,NNE,19,1.0,-999.0,60,-99.99,,,-99.99,,2013-04-04 09:43:00,
2013-04-04 04:54:00,43.0,30.0,30.07,NNE,28,2.0,-999.0,60,-99.99,,,-99.99,,2013-04-04 09:54:00,
2013-04-04 05:04:00,43.0,30.0,30.07,NNE,24,2.0,-999.0,61,-99.99,,,-99.99,,2013-04-04 10:04:00,
2013-04-04 05:12:00,43.0,30.0,30.07,NNE,24,2.0,-999.0,61,-99.99,,,-99.99,,2013-04-04 10:12:00,
2013-04-04 05:23:00,43.0,30.0,30.06,NNE,18,3.0,-999.0,60,-99.99,,,-99.99,,2013-04-04 10:23:00,
2013-04-04 05:33:00,43.0,30.0,30.06,NNE,14,2.0,-999.0,60,-99.99,,,-99.99,,2013-04-04 10:33:00,
2013-04-04 05:42:00,43.0,30.0,30.06,NNE,14,2.0,-999.0,60,-99.99,,,-99.99,,2013-04-04 10:42:00,
2013-04-04 05:54:00,43.0,30.0,30.06,NNE,19,2.0,-999.0,60,-99.99,,,-99.99,,2013-04-04 10:54:00,
2013-04-04 06:02:00,43.0,30.0,30.06,North,9,2.0,-999.0,61,-99.99,,,-99.99,,2013-04-04 11:02:00,
2013-04-04 06:12:00,43.0,30.0,30.06,North,9,2.0,-999.0,61,-99.99,,,-99.99,,2013-04-04 11:12:00,
2013-04-04 06:22:00,43.0,30.0,30.06,NNE,15,1.0,-999.0,61,-99.99,,,-99.99,,2013-04-04 11:22:00,
2013-04-04 06:32:00,43.0,30.0,30.06,NNE,12,2.0,-999.0,60,-99.99,,,-99.99,,2013-04-04 11:32:00,
2013-04-04 06:42:00,43.0,30.0,30.06,NNE,12,2.0,-999.0,60,-99.99,,,-99.99,,2013-04-04 11:42:00,
2013-04-04 06:54:00,43.0,30.0,30.06,NNE,22,2.0,-999.0,59,-99.99,,,-99.99,,2013-04-04 11:54:00,
2013-04-04 07:02:00,43.0,30.0,30.06,NE,40,1.0,-999.0,60,-99.99,,,-99.99,,2013-04-04 12:02:00,
2013-04-04 07:12:00,43.0,30.0,30.06,NE,40,1.0,-999.0,60,-99.99,,,-99.99,,2013-04-04 12:12:00,
2013-04-04 07:22:00,43.0,30.0,30.07,NE,36,0.0,-999.0,60,-99.99,,,-99.99,,2013-04-04 12:22:00,
2013-04-04 07:32:00,44.0,31.0,30.07,NE,44,0.0,-999.0,60,-99.99,,,-99.99,,2013-04-04 12:32:00,
2013-04-04 07:43:00,44.0,31.0,30.07,NE,44,0.0,-999.0,60,-99.99,,,-99.99,,2013-04-04 12:43:00,
2013-04-04 07:52:00,44.0,30.0,30.06,NNE,33,1.0,-999.0,57,-99.99,,,-99.99,,2013-04-04 12:52:00,
2013-04-04 08:02:00,44.0,29.0,30.06,ENE,57,2.0,-999.0,55,-99.99,,,-99.99,,2013-04-04 13:02:00,
2013-04-04 08:12:00,44.0,29.0,30.06,ENE,57,2.0,-999.0,55,-99.99,,,-99.99,,2013-04-04 13:12:00,
2013-04-04 08:22:00,45.0,29.0,30.06,NE,44,3.0,-999.0,54,-99.99,,,-99.99,,2013-04-04 13:22:00,
2013-04-04 08:32:00,45.0,29.0,30.06,ENE,59,3.0,-999.0,54,-99.99,,,-99.99,,2013-04-04 13:32:00,
2013-04-04 08:42:00,45.0,29.0,30.06,ENE,59,3.0,-999.0,54,-99.99,,,-99.99,,2013-04-04 13:42:00,
2013-04-04 08:53:00,44.0,31.0,30.07,ENE,65,3.0,-999.0,59,-99.99,,,-99.99,,2013-04-04 13:53:00,
2013-04-04 09:03:00,44.0,31.0,30.07,ENE,69,3.0,-999.0,61,-99.99,,,-99.99,,2013-04-04 14:03:00,
2013-04-04 09:12:00,44.0,31.0,30.07,ENE,69,3.0,-999.0,61,-99.99,,,-99.99,,2013-04-04 14:12:00,
2013-04-04 09:22:00,43.0,32.0,30.08,East,79,1.0,-999.0,66,-99.99,,,-99.99,,2013-04-04 14:22:00,
2013-04-04 09:32:00,43.0,32.0,30.08,ENE,65,3.0,-999.0,66,-99.99,,,-99.99,,2013-04-04 14:32:00,
2013-04-04 09:42:00,43.0,32.0,30.08,ENE,65,3.0,-999.0,66,-99.99,,,-99.99,,2013-04-04 14:42:00,
2013-04-04 09:53:00,42.0,33.0,30.08,ENE,67,3.0,-999.0,69,-99.99,,,-99.99,,2013-04-04 14:53:00,
2013-04-04 10:02:00,42.0,34.0,30.09,NE,46,1.0,-999.0,72,-99.99,,,-99.99,,2013-04-04 15:02:00,
2013-04-04 10:12:00,42.0,34.0,30.09,NE,46,1.0,-999.0,72,-99.99,,,-99.99,,2013-04-04 15:12:00,
2013-04-04 10:23:00,43.0,36.0,30.08,NE,40,4.0,-999.0,75,-99.99,,,-99.99,,2013-04-04 15:23:00,
2013-04-04 10:33:00,43.0,36.0,30.08,ENE,60,1.0,-999.0,75,-99.99,,,-99.99,,2013-04-04 15:33:00,
2013-04-04 10:43:00,43.0,36.0,30.08,ENE,60,1.0,-999.0,75,-99.99,,,-99.99,,2013-04-04 15:43:00,
2013-04-04 10:53:00,43.0,36.0,30.08,ENE,59,5.0,-999.0,76,-99.99,,,-99.99,,2013-04-04 15:53:00,
2013-04-04 11:03:00,43.0,36.0,30.08,NE,49,6.0,-999.0,77,-99.99,,,-99.99,,2013-04-04 16:03:00,
2013-04-04 11:12:00,43.0,36.0,30.08,NE,49,6.0,-999.0,77,-99.99,,,-99.99,,2013-04-04 16:12:00,
2013-04-04 11:23:00,44.0,37.0,30.08,NNE,33,7.0,-999.0,77,-99.99,,,-99.99,,2013-04-04 16:23:00,
2013-04-04 11:32:00,44.0,38.0,30.07,NE,51,7.0,-999.0,78,-99.99,,,-99.99,,2013-04-04 16:32:00,
2013-04-04 11:42:00,44.0,38.0,30.07,NE,51,7.0,-999.0,78,-99.99,,,-99.99,,2013-04-04 16:42:00,
2013-04-04 11:53:00,44.0,37.0,30.07,NE,39,6.0,-999.0,77,-99.99,,,-99.99,,2013-04-04 16:53:00,
2013-04-04 12:02:00,44.0,38.0,30.07,NE,51,5.0,-999.0,78,-99.99,,,-99.99,,2013-04-04 17:02:00,
2013-04-04 12:13:00,44.0,38.0,30.07,NE,51,5.0,-999.0,78,-99.99,,,-99.99,,2013-04-04 17:13:00,
2013-04-04 12:22:00,44.0,38.0,30.07,ENE,69,6.0,-999.0,78,-99.99,,,-99.99,,2013-04-04 17:22:00,
2013-04-04 12:33:00,44.0,38.0,30.07,NE,48,6.0,-999.0,78,-99.99,,,-99.99,,2013-04-04 17:33:00,
2013-04-04 12:42:00,44.0,38.0,30.07,NE,48,6.0,-999.0,78,-99.99,,,-99.99,,2013-04-04 17:42:00,
2013-04-04 12:52:00,44.0,38.0,30.06,NE,47,4.0,-999.0,79,-99.99,,,-99.99,,2013-04-04 17:52:00,
2013-04-04 13:02:00,45.0,39.0,30.06,NE,38,3.0,-999.0,79,-99.99,,,-99.99,,2013-04-04 18:02:00,
2013-04-04 13:12:00,45.0,39.0,30.06,NE,38,3.0,-999.0,79,-99.99,,,-99.99,,2013-04-04 18:12:00,
2013-04-04 13:22:00,45.0,39.0,30.05,ENE,59,4.0,-999.0,79,-99.99,,,-99.99,,2013-04-04 18:22:00,
2013-04-04 13:32:00,45.0,39.0,30.04,ENE,60,5.0,-999.0,79,-99.99,,,-99.99,,2013-04-04 18:32:00,
2013-04-04 13:43:00,45.0,39.0,30.04,ENE,60,5.0,-999.0,79,-99.99,,,-99.99,,2013-04-04 18:43:00,
2013-04-04 13:52:00,45.0,39.0,30.03,NE,53,5.0,-999.0,80,-99.99,,,-99.99,,2013-04-04 18:52:00,
2013-04-04 14:02:00,45.0,39.0,30.03,NE,53,5.0,-999.0,80,-99.99,,,-99.99,,2013-04-04 19:02:00,
2013-04-04 14:12:00,45.0,39.0,30.03,NE,53,5.0,-999.0,80,-99.99,,,-99.99,,2013-04-04 19:12:00,
2013-04-04 14:22:00,45.0,39.0,30.03,NE,53,5.0,-999.0,80,-99.99,,,-99.99,,2013-04-04 19:22:00,
2013-04-04 14:32:00,45.0,39.0,30.03,NE,53,5.0,-999.0,80,-99.99,,,-99.99,,2013-04-04 19:32:00,
2013-04-04 14:52:00,47.0,42.0,30.02,ENE,62,6.0,-999.0,82,-99.99,,,-99.99,,2013-04-04 19:52:00,
2013-04-04 15:03:00,47.0,42.0,30.01,NE,46,6.0,-999.0,82,-99.99,,,-99.99,,2013-04-04 20:03:00,
2013-04-04 15:12:00,47.0,42.0,30.01,NE,46,6.0,-999.0,82,-99.99,,,-99.99,,2013-04-04 20:12:00,
2013-04-04 15:22:00,47.0,42.0,30.01,ENE,64,6.0,-999.0,82,-99.99,,,-99.99,,2013-04-04 20:22:00,
2013-04-04 15:32:00,47.0,42.0,30.01,NE,48,5.0,-999.0,82,-99.99,,,-99.99,,2013-04-04 20:32:00,
2013-04-04 15:42:00,47.0,42.0,30.01,NE,48,5.0,-999.0,82,-99.99,,,-99.99,,2013-04-04 20:42:00,
2013-04-04 15:53:00,48.0,43.0,30.00,ENE,69,6.0,-999.0,82,-99.99,,,-99.99,,2013-04-04 20:53:00,
2013-04-04 16:02:00,48.0,43.0,30.00,NE,49,6.0,-999.0,82,-99.99,,,-99.99,,2013-04-04 21:02:00,
2013-04-04 16:12:00,48.0,43.0,30.00,NE,49,6.0,-999.0,82,-99.99,,,-99.99,,2013-04-04 21:12:00,
2013-04-04 16:22:00,48.0,43.0,30.00,ENE,67,4.0,-999.0,82,-99.99,,,-99.99,,2013-04-04 21:22:00,
2013-04-04 16:32:00,48.0,43.0,29.99,ENE,74,5.0,-999.0,82,-99.99,,,-99.99,,2013-04-04 21:32:00,
2013-04-04 16:43:00,48.0,43.0,29.99,ENE,74,5.0,-999.0,82,-99.99,,,-99.99,,2013-04-04 21:43:00,
2013-04-04 16:53:00,48.0,43.0,29.99,NE,39,4.0,-999.0,82,-99.99,,,-99.99,,2013-04-04 21:53:00,
2013-04-04 17:03:00,48.0,43.0,29.99,ENE,76,4.0,-999.0,82,-99.99,,,-99.99,,2013-04-04 22:03:00,
2013-04-04 17:12:00,48.0,43.0,29.99,ENE,76,4.0,-999.0,82,-99.99,,,-99.99,,2013-04-04 22:12:00,
2013-04-04 17:23:00,48.0,42.0,30.00,NE,48,0.0,-999.0,81,-99.99,,,-99.99,,2013-04-04 22:23:00,
2013-04-04 17:33:00,48.0,42.0,30.00,ENE,67,0.0,-999.0,81,-99.99,,,-99.99,,2013-04-04 22:33:00,
2013-04-04 17:42:00,48.0,42.0,30.00,ENE,67,0.0,-999.0,81,-99.99,,,-99.99,,2013-04-04 22:42:00,
2013-04-04 17:53:00,48.0,42.0,30.00,ENE,63,0.0,-999.0,81,-99.99,,,-99.99,,2013-04-04 22:53:00,
2013-04-04 18:02:00,49.0,43.0,30.01,ENE,72,0.0,-999.0,81,-99.99,,,-99.99,,2013-04-04 23:02:00,
2013-04-04 18:12:00,49.0,43.0,30.01,ENE,72,0.0,-999.0,81,-99.99,,,-99.99,,2013-04-04 23:12:00,
2013-04-04 18:22:00,49.0,43.0,30.01,ENE,65,0.0,-999.0,81,-99.99,,,-99.99,,2013-04-04 23:22:00,
2013-04-04 18:32:00,49.0,43.0,30.01,NE,53,0.0,-999.0,81,-99.99,,,-99.99,,2013-04-04 23:32:00,
2013-04-04 18:42:00,49.0,43.0,30.01,NE,53,0.0,-999.0,81,-99.99,,,-99.99,,2013-04-04 23:42:00,
2013-04-04 18:52:00,49.0,43.0,30.01,NE,53,0.0,-999.0,81,-99.99,,,-99.99,,2013-04-04 23:52:00,
2013-04-04 19:02:00,49.0,43.0,30.01,NE,53,0.0,-999.0,81,-99.99,,,-99.99,,2013-04-05 00:02:00,
2013-04-04 19:12:00,49.0,43.0,30.01,NE,53,0.0,-999.0,81,-99.99,,,-99.99,,2013-04-05 00:12:00,
2013-04-04 19:22:00,49.0,43.0,30.01,NE,54,0.0,-999.0,81,-99.99,,,-99.99,,2013-04-05 00:22:00,
2013-04-04 19:32:00,49.0,43.0,30.01,NE,54,0.0,-999.0,81,-99.99,,,-99.99,,2013-04-05 00:32:00,
2013-04-04 19:42:00,49.0,43.0,30.01,NE,54,0.0,-999.0,81,-99.99,,,-99.99,,2013-04-05 00:42:00,
2013-04-04 19:52:00,49.0,43.0,30.01,NE,54,0.0,-999.0,81,-99.99,,,-99.99,,2013-04-05 00:52:00,
2013-04-04 20:02:00,49.0,43.0,30.01,NE,53,0.0,-999.0,81,-99.99,,,-99.99,,2013-04-05 01:02:00,
2013-04-04 20:12:00,49.0,43.0,30.01,NE,53,0.0,-999.0,81,-99.99,,,-99.99,,2013-04-05 01:12:00,
2013-04-04 20:22:00,49.0,44.0,30.01,NE,53,0.0,-999.0,82,-99.99,,,-99.99,,2013-04-05 01:22:00,
2013-04-04 20:32:00,49.0,44.0,30.01,NE,54,0.0,-999.0,82,-99.99,,,-99.99,,2013-04-05 01:32:00,
2013-04-04 20:42:00,49.0,44.0,30.01,NE,54,0.0,-999.0,82,-99.99,,,-99.99,,2013-04-05 01:42:00,
2013-04-04 20:53:00,49.0,44.0,30.01,NE,55,0.0,-999.0,83,-99.99,,,-99.99,,2013-04-05 01:53:00,
2013-04-04 21:03:00,48.0,43.0,30.01,East,91,0.0,-999.0,83,-99.99,,,-99.99,,2013-04-05 02:03:00,
2013-04-04 21:12:00,48.0,43.0,30.01,East,91,0.0,-999.0,83,-99.99,,,-99.99,,2013-04-05 02:12:00,
2013-04-04 21:22:00,48.0,43.0,30.02,East,98,0.0,-999.0,84,-99.99,,,-99.99,,2013-04-05 02:22:00,
2013-04-04 21:32:00,48.0,43.0,30.02,East,98,0.0,-999.0,84,-99.99,,,-99.99,,2013-04-05 02:32:00,
2013-04-04 21:42:00,48.0,43.0,30.02,East,98,0.0,-999.0,84,-99.99,,,-99.99,,2013-04-05 02:42:00,
2013-04-04 21:52:00,48.0,43.0,30.02,East,98,0.0,-999.0,83,-99.99,,,-99.99,,2013-04-05 02:52:00,
2013-04-04 21:53:00,48.0,42.0,30.03,East,98,0.0,-999.0,81,-99.99,,,-99.99,,2013-04-05 02:53:00,
2013-04-04 22:02:00,48.0,43.0,30.02,East,98,0.0,-999.0,82,-99.99,,,-99.99,,2013-04-05 03:02:00,
2013-04-04 22:12:00,48.0,43.0,30.02,East,98,0.0,-999.0,82,-99.99,,,-99.99,,2013-04-05 03:12:00,
2013-04-04 22:22:00,48.0,42.0,30.03,East,98,0.0,-999.0,81,-99.99,,,-99.99,,2013-04-05 03:22:00,
2013-04-04 22:32:00,48.0,42.0,30.03,East,98,0.0,-999.0,81,-99.99,,,-99.99,,2013-04-05 03:32:00,
2013-04-04 22:43:00,48.0,42.0,30.03,East,98,0.0,-999.0,81,-99.99,,,-99.99,,2013-04-05 03:43:00,